Theta_e
286 286 286 286 287 287 287 287 287 287 287 287 286 286 286 286 286 286 286 286 286 286 286 286 286 286 286 286 285 285 285 285 284 283 283 283 283 283 283 284 284 284 285 285 286 286 286 286 286 286 286 285 285 285 285 286 287 288 289 290 290 291 290 288 288 289 290 291 291 291 292 292 292 292 293 293 294 294 294 294 294 295 295 295 295
287 287 287 287 287 287 287 287 286 286 286 286 286 286 285 285 285 286 286 286 286 285 285 285 285 285 284 284 284 284 283 283 283 282 282 282 282 282 282 282 282 282 282 283 283 284 284 285 285 286 286 285 285 285 284 284 284 285 286 288 289 290 290 289 288 288 289 290 291 291 291 291 292 292 292 292 293 293 294 294 294 294 294 294 294
287 287 287 287 287 286 286 286 286 286 286 286 286 286 285 286 286 286 286 286 286 285 284 284 283 283 282 282 282 282 282 282 281 281 281 281 281 281 281 281 281 281 281 281 282 282 282 283 284 284 285 285 285 285 285 284 284 284 284 286 287 288 289 289 288 288 288 289 290 290 291 291 291 292 292 292 292 293 293 293 293 293 293 293 294
287 287 286 286 286 286 286 286 286 286 285 285 285 285 284 284 284 285 285 285 285 284 283 282 281 281 280 280 280 280 280 280 280 280 280 280 280 280 280 280 280 280 280 281 281 281 282 282 282 283 283 284 284 284 285 285 284 284 284 284 285 286 287 288 288 288 288 288 288 289 289 290 290 291 291 291 291 292 292 292 293 293 293 292 292
287 287 286 286 286 285 285 285 285 285 284 284 283 283 283 283 282 282 282 282 282 281 281 280 280 279 279 279 279 279 279 279 279 279 279 279 279 279 279 279 279 280 280 280 280 281 281 281 282 282 282 283 283 283 284 284 284 284 284 284 284 285 285 287 288 288 287 287 287 288 288 289 289 290 290 290 291 291 291 292 292 292 292 291 291
287 287 286 286 285 285 285 284 284 284 283 283 282 282 282 282 282 282 282 281 280 280 279 278 278 277 277 277 277 277 278 278 278 278 278 278 278 278 279 279 279 279 280 280 280 281 281 281 281 282 282 282 283 283 283 283 284 284 284 284 284 284 285 285 286 287 287 287 287 287 288 288 288 289 289 289 290 290 290 291 291 291 291 290 290
287 287 286 286 285 284 284 284 283 283 283 282 282 282 282 282 282 282 282 281 280 279 278 278 277 277 276 277 276 276 277 277 277 277 277 277 278 278 278 279 279 280 280 280 280 280 281 281 281 281 281 282 282 282 283 283 283 283 283 284 284 284 285 285 285 286 287 287 287 287 287 287 287 288 288 289 289 289 289 288 289 290 290 290 290
287 287 286 285 285 284 284 283 283 283 282 282 282 282 282 282 281 281 280 279 278 278 277 277 277 277 276 276 276 275 275 275 275 276 276 277 277 278 278 279 279 279 279 280 280 280 280 280 281 281 281 281 282 282 282 282 283 283 283 283 284 284 284 284 285 285 286 286 286 286 287 287 287 287 288 288 287 287 288 287 287 288 289 289 290
287 287 286 285 285 284 284 283 283 282 282 282 281 281 281 280 280 279 279 278 277 277 276 276 276 276 276 275 275 274 274 274 274 274 275 276 277 278 278 278 278 279 279 279 279 279 280 280 280 280 281 281 281 281 282 282 283 283 283 283 284 284 284 284 284 285 285 285 285 286 286 286 287 287 287 286 287 287 288 287 287 287 288 288 289
286 286 285 284 284 283 282 282 282 282 281 281 280 280 280 279 279 279 278 278 277 277 276 275 275 274 274 274 274 273 272 272 272 273 274 275 276 276 277 277 277 277 278 278 278 278 279 279 279 280 280 280 280 281 281 282 282 283 283 283 284 284 284 284 284 284 284 285 285 285 285 286 286 287 287 287 287 287 287 287 287 287 287 287 287
286 285 285 284 283 282 282 282 281 281 280 280 279 279 279 279 278 278 278 278 277 277 276 275 274 273 273 272 272 271 270 270 270 272 273 274 274 275 275 275 276 276 276 277 277 277 278 278 278 278 279 279 279 279 280 281 281 282 282 283 283 284 284 284 284 284 284 284 284 285 285 285 286 286 287 287 287 287 287 287 287 287 286 286 287
285 284 284 283 282 282 281 280 280 279 279 278 278 278 277 277 277 277 277 277 276 276 275 274 273 272 271 270 270 269 268 268 269 270 271 272 273 273 273 274 274 274 275 275 276 276 276 276 276 277 277 277 277 278 279 279 280 280 281 282 282 283 284 284 284 285 285 285 284 284 285 285 285 286 286 287 287 287 287 287 286 286 286 286 287
283 283 282 282 281 280 279 278 278 277 277 277 277 276 276 276 276 276 275 275 274 274 273 272 271 269 269 268 268 267 267 267 268 269 270 271 271 272 272 273 273 273 274 274 274 274 275 275 275 275 275 276 276 277 277 277 278 279 279 280 280 281 282 283 283 284 285 285 285 285 285 285 285 285 286 286 287 287 287 286 286 286 286 286 287
282 281 280 280 279 278 278 277 276 276 276 276 275 275 275 275 274 274 273 272 272 271 270 269 268 267 267 267 267 267 266 266 267 267 269 270 270 271 272 271 271 272 272 272 272 272 272 272 273 273 274 275 275 275 276 276 277 277 278 278 278 279 279 280 281 282 283 284 285 285 286 286 286 286 286 286 287 287 287 287 286 286 286 287 287
280 279 279 278 278 277 276 276 276 275 275 275 274 274 274 273 273 272 271 270 269 268 268 267 266 266 266 266 266 265 265 265 266 266 268 269 270 271 270 270 270 270 270 270 270 270 270 271 271 272 272 273 273 274 274 275 276 276 276 276 277 277 278 278 279 280 281 282 282 283 284 284 285 286 286 286 286 287 287 287 287 287 287 287 287
278 278 277 277 277 276 275 275 275 274 274 273 273 273 272 272 271 270 269 268 268 267 266 265 265 265 265 265 264 264 264 265 265 266 267 268 269 269 269 269 269 269 269 269 270 270 270 270 271 271 272 272 273 273 274 275 275 275 276 276 276 277 277 277 278 279 280 281 282 282 282 283 283 284 285 285 286 286 287 287 287 287 287 286 286
277 277 277 276 275 275 274 274 273 273 273 272 272 272 271 271 270 269 268 267 266 265 265 264 264 264 264 263 263 263 263 264 264 265 266 267 268 268 268 268 268 269 269 269 269 269 270 270 270 271 271 271 272 273 273 274 275 275 275 276 276 276 276 276 277 278 279 280 281 282 282 283 284 284 284 285 285 286 286 286 286 286 286 286 286
276 276 275 275 274 273 273 272 272 272 272 271 271 270 270 269 268 267 266 265 265 264 264 263 264 263 263 263 262 262 262 263 264 264 265 267 267 268 268 268 268 268 268 269 269 269 269 269 270 270 270 270 271 272 273 274 275 275 275 275 276 276 276 276 276 277 278 278 279 280 281 282 283 284 285 285 286 286 287 286 286 286 286 286 286
275 275 274 273 272 272 271 271 271 271 271 270 270 269 269 268 267 266 265 264 263 263 263 263 263 262 262 262 262 262 262 263 263 264 265 266 267 268 268 268 268 268 268 268 268 268 269 269 269 270 270 271 271 272 273 274 274 275 275 275 275 276 276 276 276 277 277 277 278 279 280 281 282 283 283 284 284 286 287 287 287 286 286 286 286
273 273 272 271 271 271 270 270 270 270 270 269 268 268 267 267 265 264 264 263 263 262 262 262 262 262 262 262 262 262 262 263 263 264 264 266 267 268 268 268 268 268 268 268 268 269 269 269 270 270 271 271 271 272 272 273 273 274 274 274 274 275 275 276 276 276 277 277 277 278 279 280 280 281 282 282 283 284 285 286 287 287 287 286 286
272 271 271 270 270 270 270 270 270 269 269 268 267 267 266 265 264 263 263 262 262 262 262 262 261 261 262 262 262 263 263 263 263 263 264 266 267 268 268 269 269 269 269 269 269 270 270 270 270 270 270 271 272 272 273 273 273 274 274 274 274 274 275 275 276 276 277 277 278 278 279 279 280 280 281 281 282 283 283 284 286 287 287 287 286
270 270 270 270 270 270 269 269 269 268 268 267 265 266 265 264 263 263 262 262 261 261 261 261 261 261 261 262 263 263 264 264 264 264 264 265 267 268 269 269 270 270 270 270 270 270 270 270 270 270 271 272 272 273 273 273 274 274 274 274 275 275 276 276 276 276 276 276 277 277 278 279 280 281 281 281 282 282 283 283 284 285 287 287 287
269 269 269 270 269 269 269 269 268 268 267 266 264 265 265 263 262 262 262 261 261 261 261 261 260 260 261 262 263 264 264 264 264 264 265 266 267 268 269 270 271 271 271 271 271 271 271 271 271 271 271 272 273 273 274 274 274 275 275 275 275 275 275 275 275 275 275 275 275 276 276 277 278 280 281 281 282 282 282 283 283 284 285 286 287
269 269 269 269 269 269 268 268 268 267 266 265 264 264 264 263 262 262 262 261 260 260 260 260 260 260 261 262 263 264 264 265 265 265 265 266 268 269 269 270 271 271 271 271 271 271 271 271 271 272 272 273 274 274 274 274 274 274 274 274 274 274 274 274 274 274 274 274 275 275 275 276 277 278 279 281 282 282 282 283 283 284 284 285 286
269 269 269 269 268 268 268 268 267 266 265 264 264 263 263 262 261 262 261 261 260 260 260 260 260 260 261 261 262 264 265 265 265 266 266 267 268 268 269 270 270 271 271 271 271 271 272 272 273 273 273 274 273 273 273 273 273 273 274 274 274 274 274 274 274 274 274 274 274 274 274 275 276 276 278 279 281 282 283 283 283 283 284 285 285
268 268 268 268 268 267 267 267 267 266 265 264 263 263 262 261 261 261 261 261 260 260 260 260 260 261 262 262 263 264 265 266 266 267 267 268 268 268 269 269 270 271 271 271 272 272 272 273 273 273 273 273 273 273 273 273 273 273 273 273 273 273 273 273 273 273 273 273 273 273 273 274 274 275 276 277 279 281 282 283 283 283 283 284 285
267 268 268 267 267 266 266 266 265 265 265 264 263 264 263 261 260 261 261 261 261 260 261 261 262 262 263 264 265 265 266 266 267 268 268 268 268 269 270 270 270 271 271 271 271 271 272 272 272 272 272 272 272 273 273 272 272 272 272 272 272 272 272 272 272 272 272 272 272 273 273 273 274 274 275 276 277 279 281 282 283 283 283 284 284
266 267 267 267 266 266 265 264 264 263 263 263 263 263 263 261 261 262 262 262 261 261 261 262 263 264 265 265 266 266 267 268 268 268 269 269 270 271 271 271 271 271 272 272 272 272 272 272 272 272 272 271 271 271 271 271 271 271 271 271 271 272 272 272 272 272 272 272 273 273 273 273 274 274 275 276 277 278 280 282 283 283 283 283 283
265 266 266 266 265 265 264 264 263 262 262 262 263 264 264 262 261 262 264 264 262 263 264 265 266 266 267 267 268 268 268 269 269 269 270 271 272 272 272 272 272 273 273 273 273 273 273 273 272 272 271 271 271 271 271 271 271 271 271 271 271 271 272 272 272 272 272 272 273 273 273 274 274 275 275 276 277 278 279 281 282 282 282 283 283
264 265 265 265 265 264 263 263 263 262 261 261 261 263 266 265 263 262 263 265 264 265 266 267 267 268 268 268 268 268 268 269 269 270 271 271 271 272 272 272 273 273 273 274 274 273 272 272 271 271 270 270 270 270 270 270 270 270 271 271 271 271 271 272 272 272 272 273 273 273 274 274 274 275 276 277 278 278 279 281 282 282 282 282 283
263 264 264 264 263 262 261 262 262 261 261 260 259 260 263 267 267 265 263 263 265 266 266 267 267 268 268 268 267 267 268 269 269 270 270 271 271 271 272 272 272 272 272 273 272 271 270 269 269 269 269 269 269 269 269 269 270 270 270 271 271 271 271 272 272 272 272 273 273 273 274 274 275 275 276 277 278 279 280 282 282 282 282 282 283
263 263 263 263 262 262 261 261 261 260 260 260 259 259 259 262 266 268 267 265 263 264 265 266 266 267 267 267 267 267 268 268 269 269 270 270 270 270 270 270 270 270 270 270 269 268 268 267 268 268 268 268 268 269 269 269 270 270 270 271 271 271 271 272 272 272 273 273 273 273 274 274 274 275 276 277 278 279 281 282 282 282 282 282 283
262 262 262 262 262 262 262 261 260 260 259 259 259 259 258 258 260 263 267 268 268 266 265 264 264 265 265 266 266 267 267 268 269 269 269 269 268 268 268 267 267 267 267 266 266 266 266 267 267 268 268 268 268 268 268 269 269 270 270 270 271 271 271 272 272 273 273 273 273 273 274 274 275 275 277 278 279 280 281 282 282 282 282 282 282
262 262 262 261 262 262 262 261 259 259 259 259 259 259 259 259 258 259 261 265 267 268 266 265 264 264 264 265 266 266 266 267 268 268 268 267 266 266 265 264 264 264 263 263 263 264 264 265 266 266 266 266 266 267 267 268 268 268 269 269 270 271 272 273 273 273 273 273 273 274 274 274 275 276 277 278 279 280 282 282 282 282 282 282 282
262 262 262 261 261 262 262 260 259 259 259 259 259 259 258 259 259 259 259 259 260 262 263 265 265 264 263 263 264 265 266 267 268 267 266 265 265 264 262 261 261 261 261 261 262 262 262 263 263 263 263 264 264 265 265 266 266 267 268 269 270 271 273 274 274 274 273 273 274 274 274 275 276 277 278 278 279 280 281 282 282 282 282 282 282
262 262 262 262 261 262 261 260 260 259 259 258 259 259 259 259 258 259 259 259 259 259 260 262 264 265 264 263 263 264 265 267 267 265 264 264 263 262 260 260 260 260 260 260 260 261 261 261 261 261 262 262 263 263 264 265 266 267 268 269 270 272 273 274 274 274 274 274 274 275 275 276 277 277 278 279 279 280 281 281 281 281 281 282 281
262 262 262 262 262 262 262 261 260 259 259 259 258 258 258 259 259 259 259 259 259 259 259 260 261 263 263 263 263 263 264 266 265 264 263 262 262 261 260 260 259 259 260 260 260 260 260 260 260 260 261 261 262 262 263 264 265 266 267 268 269 271 273 274 274 274 274 274 275 275 276 276 277 278 278 279 280 280 281 281 281 281 281 281 281
262 261 261 261 261 261 261 260 260 259 259 259 259 258 258 258 258 258 259 259 259 259 259 259 260 260 261 262 262 263 264 265 265 263 262 262 261 260 260 260 259 259 259 260 260 260 260 260 260 260 260 261 261 262 263 264 265 265 266 267 268 270 272 274 275 275 276 276 276 276 277 277 278 278 278 279 279 280 280 281 280 280 280 280 280
261 261 261 261 260 260 259 259 259 259 259 259 258 258 258 258 258 258 258 258 258 258 259 259 259 260 260 261 262 263 264 264 262 261 261 261 261 261 260 260 260 260 260 260 260 260 260 260 260 260 261 261 262 262 263 263 264 265 266 266 267 269 271 272 273 274 275 275 276 277 277 278 278 279 279 279 279 279 280 280 280 280 280 279 279
261 261 261 260 260 260 259 259 259 259 259 258 258 258 258 258 258 258 258 258 258 258 258 258 259 260 260 260 261 263 264 262 260 260 260 260 260 260 260 260 260 260 260 260 260 260 260 260 261 261 261 262 262 262 263 263 264 265 265 266 267 268 269 270 270 271 272 273 274 275 276 277 278 278 279 279 279 279 279 279 279 279 279 279 279
261 260 260 260 260 260 259 259 259 259 258 258 258 258 258 258 258 258 258 258 258 258 258 259 260 260 260 260 262 263 263 261 260 260 259 259 260 260 260 260 260 260 260 260 260 260 260 261 261 261 262 262 263 263 263 264 264 265 265 266 266 267 267 268 268 269 270 271 272 273 274 275 276 277 278 279 279 278 279 279 279 279 279 278 278
260 260 260 260 260 260 260 260 259 259 258 258 258 258 258 258 258 258 258 258 258 258 259 259 260 260 261 261 261 262 261 260 259 259 259 259 260 260 260 260 260 260 260 260 260 260 260 261 261 262 262 263 263 264 264 264 264 265 265 265 266 266 267 267 267 268 269 270 271 272 273 273 274 276 277 277 278 278 278 278 278 278 277 277 277
260 260 260 260 260 260 260 260 259 259 258 258 258 258 258 258 258 258 258 258 258 258 258 259 259 260 261 261 261 261 261 260 259 259 260 260 260 260 260 260 260 260 260 261 261 261 261 261 261 262 263 263 264 264 264 265 265 265 265 265 265 266 266 266 267 268 268 269 270 271 272 272 273 274 275 275 276 276 276 276 276 276 276 275 275
260 260 260 260 260 259 259 259 259 259 259 258 258 258 258 258 259 259 258 258 259 259 259 259 259 260 261 262 261 261 261 260 260 260 260 260 260 260 261 261 261 261 261 261 261 261 261 261 262 262 263 263 264 264 265 265 265 265 265 265 265 266 266 266 267 268 268 269 270 271 271 272 272 273 273 273 274 274 274 274 274 274 274 274 273
260 260 260 259 259 259 260 259 259 259 259 259 259 259 259 259 259 259 259 259 259 259 259 259 259 260 260 261 261 261 260 260 260 260 260 260 261 261 261 261 262 262 262 262 262 262 262 262 262 262 262 263 264 264 265 265 266 266 265 265 265 265 266 266 267 268 268 269 269 270 270 271 271 271 272 272 272 273 273 273 273 273 273 272 272
260 259 259 259 259 259 259 259 259 259 259 259 260 260 260 260 260 259 259 259 259 259 260 260 260 260 260 260 261 260 260 260 260 261 261 261 261 261 262 262 262 262 263 263 263 263 263 262 262 262 262 262 263 264 264 265 265 266 266 266 265 265 266 266 267 268 268 269 269 269 270 270 270 270 271 271 271 271 271 271 272 272 271 271 271
259 259 259 259 259 259 259 259 259 259 259 260 260 260 261 260 260 260 260 260 260 260 260 260 260 260 260 260 260 260 260 260 260 261 261 261 261 261 262 262 262 263 263 263 263 263 263 263 263 262 262 262 263 263 264 264 265 266 266 266 266 266 266 267 267 267 268 268 269 269 269 269 270 270 270 270 270 270 270 270 270 271 271 271 271
259 259 259 259 259 259 259 259 259 259 260 260 260 260 261 260 260 260 260 260 260 260 260 260 260 260 260 260 260 260 260 260 261 261 261 261 261 261 261 262 262 262 263 263 263 264 264 264 264 263 262 262 263 263 264 264 265 265 266 266 266 266 266 267 267 267 268 268 268 269 269 269 269 269 269 269 269 269 269 270 270 270 270 271 271
259 259 259 259 259 259 259 260 259 260 260 260 260 260 260 260 260 260 260 260 260 260 260 260 260 260 260 260 260 260 260 260 261 261 261 261 261 261 261 262 262 262 262 263 263 263 263 264 264 263 262 262 262 263 264 264 265 265 265 266 266 266 266 267 267 267 268 268 268 268 268 269 269 269 269 269 269 269 269 269 269 270 270 270 270
259 259 259 259 259 259 260 259 259 260 260 259 259 260 260 260 260 260 260 260 260 260 260 260 260 260 260 260 260 260 260 260 261 261 261 261 261 261 261 262 262 262 262 262 262 263 263 263 264 263 262 262 262 263 263 264 265 265 265 266 266 266 266 267 267 267 267 268 268 268 268 268 268 268 268 268 268 268 268 269 269 269 269 268 268
259 259 259 259 259 259 259 259 259 260 260 259 259 260 259 259 260 260 260 260 260 260 260 260 260 260 260 260 260 260 260 260 260 261 261 261 261 261 261 261 261 262 262 262 262 262 262 263 263 263 263 262 262 263 263 264 265 265 265 265 266 266 266 266 267 267 267 268 268 268 268 268 267 267 267 268 268 268 268 268 268 268 267 267 267
Wind_Speed
8 7 7 7 7 7 7 7 8 9 10 11 13 14 16 18 20 22 24 25 27 29 30 30 30 30 30 31 31 32 32 33 33 33 32 32 30 29 29 28 28 28 27 27 27 27 29 30 29 28 27 27 26 25 25 25 24 24 23 24 25 25 25 23 16 16 23 26 27 30 29 28 30 31 32 33 33 33 35 37 36 36 38 39 40
6 6 5 5 5 6 6 7 8 10 11 12 14 15 17 19 21 23 25 27 28 29 30 31 31 30 30 31 32 32 33 34 34 34 34 33 33 31 30 29 28 28 27 27 27 26 28 29 30 30 29 29 28 27 27 26 25 25 24 23 25 25 24 25 22 18 20 23 26 29 29 28 31 32 32 33 34 34 36 38 38 38 39 39 40
4 4 3 4 4 5 6 7 8 10 12 13 14 16 17 19 21 23 25 27 28 29 30 30 30 31 31 32 32 33 34 35 35 35 34 33 33 33 32 30 29 29 28 29 29 28 27 29 30 29 29 31 32 30 29 28 27 27 26 24 24 25 25 25 26 23 22 23 24 27 27 27 30 32 31 32 34 34 37 39 39 39 39 39 41
1 2 2 3 4 4 6 6 7 10 11 12 14 15 16 18 19 21 23 25 27 28 29 29 29 30 30 31 32 32 33 34 34 34 33 32 32 33 33 32 31 30 30 31 31 30 29 30 30 29 29 30 33 33 32 31 30 29 29 28 25 26 26 25 27 27 25 25 24 25 26 27 29 30 29 30 32 33 36 38 38 39 39 39 40
3 4 3 4 4 4 5 5 6 8 9 11 13 14 15 17 18 20 22 24 26 27 28 28 28 29 30 30 30 31 31 31 31 32 31 31 31 31 31 31 32 32 32 32 32 31 30 31 32 31 29 29 31 33 33 33 32 30 31 31 29 28 27 25 27 28 27 27 27 26 26 27 29 30 29 29 31 32 34 36 38 39 39 38 39
5 6 6 5 5 4 4 5 6 7 9 11 14 15 17 19 21 23 25 27 29 29 29 29 29 29 30 29 29 30 30 30 29 29 30 30 29 30 31 31 32 32 33 33 33 32 31 32 33 33 31 31 31 32 32 33 34 33 32 32 31 30 29 28 27 27 28 29 28 26 26 27 28 29 29 29 30 32 33 34 36 37 37 37 38
4 4 5 5 5 5 5 6 8 10 12 14 16 18 20 22 24 26 28 30 31 31 31 32 31 31 31 31 30 30 30 29 28 27 27 27 27 29 30 31 32 33 33 34 34 34 33 33 34 34 32 32 33 33 32 32 33 34 34 33 32 30 30 30 28 27 27 28 27 26 25 25 26 28 28 27 28 31 31 27 28 32 35 36 38
2 2 3 4 5 6 8 10 11 13 15 17 18 20 23 25 26 28 29 30 30 31 31 32 32 32 32 31 30 30 29 29 27 25 26 26 27 28 30 31 32 33 34 35 35 35 35 35 34 34 33 33 33 33 33 32 32 33 34 34 33 31 30 30 29 27 27 26 26 26 25 24 24 25 26 24 24 27 28 25 27 31 31 33 36
3 3 3 5 6 9 10 12 14 15 17 19 21 23 25 26 28 29 30 30 30 31 31 31 31 32 32 32 31 30 29 27 25 24 25 27 27 28 30 31 32 34 35 36 36 36 36 36 35 35 35 34 34 33 34 34 33 33 34 34 32 31 31 30 29 27 26 24 25 25 23 22 22 22 21 22 24 27 26 24 28 31 27 28 35
3 4 5 6 8 10 12 14 16 18 20 21 23 25 26 28 29 30 31 31 32 32 32 32 31 32 33 34 34 32 29 27 25 24 25 26 28 29 30 32 33 34 36 37 38 38 37 36 36 36 35 35 35 34 33 33 32 33 34 34 33 32 32 31 29 28 26 23 24 24 20 20 23 22 21 24 27 27 26 24 26 29 24 22 29
5 6 8 9 11 13 15 17 19 20 22 23 24 26 27 29 30 31 32 32 33 33 33 33 33 33 33 34 34 33 32 30 28 27 26 26 27 29 31 33 35 35 36 36 38 39 38 38 37 37 36 36 36 35 34 33 32 32 32 33 33 33 33 32 31 30 27 25 26 26 21 21 27 25 22 25 26 25 27 27 26 26 20 15 17
7 9 11 12 14 16 17 18 19 20 22 23 25 26 27 28 29 31 32 33 33 33 33 33 33 33 33 34 34 32 33 33 30 27 27 27 27 28 31 34 36 36 37 36 37 37 37 37 37 37 36 36 35 35 35 34 34 33 32 32 32 32 33 33 33 33 31 28 27 28 26 26 30 28 24 24 25 24 27 28 27 25 22 18 18
8 10 11 13 15 16 17 18 19 21 22 23 24 25 27 28 28 30 31 31 32 32 32 32 32 32 32 33 34 33 34 34 30 26 27 27 27 28 30 32 33 34 34 33 33 33 34 35 36 36 36 36 35 34 35 36 36 35 34 34 33 33 32 33 35 35 36 34 31 32 33 32 31 31 29 25 24 24 24 26 27 26 25 23 26
9 10 12 13 15 16 17 19 20 21 22 23 24 25 26 27 27 28 29 30 31 31 31 31 31 31 31 32 34 35 35 34 30 27 27 27 27 28 29 29 29 29 30 30 31 32 33 34 35 36 35 33 31 32 33 34 35 34 34 34 35 35 34 34 35 36 37 38 36 36 39 38 36 37 36 29 26 26 26 27 27 27 28 29 33
10 11 12 13 15 16 18 19 21 22 22 23 24 25 26 26 27 27 28 29 29 29 30 30 31 31 31 32 34 35 34 33 30 29 28 28 28 28 27 27 28 28 28 29 30 32 32 32 33 33 33 32 31 31 32 32 33 34 35 36 37 38 38 38 37 37 37 38 39 40 42 42 41 41 40 35 32 32 31 31 30 30 30 31 32
10 11 12 13 15 16 18 20 21 22 22 23 24 25 26 26 27 27 28 28 28 28 28 29 30 32 32 32 33 34 34 32 30 29 28 29 29 28 27 26 26 27 27 26 27 27 27 27 28 30 31 31 29 28 28 29 31 33 34 35 36 37 39 39 38 37 37 38 39 41 43 45 44 43 42 39 36 35 34 33 32 30 27 23 23
11 12 13 14 15 16 17 19 20 21 22 23 24 25 25 26 26 26 27 28 28 28 29 29 30 31 32 31 31 34 35 33 30 29 29 29 29 28 27 26 25 26 26 25 25 25 24 24 25 27 29 28 27 27 27 29 31 33 34 34 35 37 40 41 39 37 38 39 40 42 43 44 45 43 42 40 39 37 34 30 29 29 24 15 14
12 12 13 14 15 15 16 17 19 20 21 22 24 24 24 25 25 25 26 28 28 28 29 30 30 30 31 31 30 32 34 33 30 29 29 29 28 28 28 27 27 27 26 25 24 24 24 25 26 28 30 30 29 29 28 28 30 32 33 33 35 37 39 39 37 36 38 39 41 42 42 43 43 42 42 40 39 37 34 32 33 31 24 16 15
12 12 13 14 14 14 15 17 18 19 21 21 22 23 23 24 24 24 24 26 28 28 29 30 31 31 30 31 30 30 33 34 31 29 29 28 28 29 29 29 28 28 27 26 26 27 29 30 30 30 29 29 29 28 28 28 30 31 31 31 32 33 33 33 33 35 38 38 39 39 39 40 40 41 42 41 40 39 38 38 37 32 26 24 23
11 12 13 13 13 14 15 16 17 18 20 21 21 21 22 23 23 24 25 25 27 28 29 29 31 31 30 30 30 30 32 34 32 30 29 29 28 29 30 29 29 29 29 29 30 32 32 30 27 26 27 29 29 30 30 29 30 32 32 32 33 33 32 32 32 35 36 37 37 38 39 40 41 41 41 41 41 41 40 41 41 37 32 30 28
12 12 12 12 13 14 14 16 17 17 18 19 20 21 21 22 23 23 25 26 26 28 29 29 30 31 30 30 31 31 32 33 33 31 29 29 29 29 30 30 30 30 30 30 30 31 29 26 26 28 30 31 31 31 31 30 30 31 31 32 34 36 36 35 36 36 35 35 36 36 37 38 40 41 41 41 41 41 40 41 42 42 40 36 32
12 12 12 12 13 14 15 15 16 17 17 18 20 21 21 21 22 23 24 25 26 27 28 29 29 29 30 30 31 33 32 33 34 32 30 30 29 29 30 31 30 30 30 28 28 29 29 29 31 32 32 32 32 31 31 32 32 32 32 32 34 36 35 36 36 34 32 33 33 33 34 35 35 36 38 39 40 41 41 41 42 43 44 44 40
12 12 12 12 13 14 15 15 15 16 17 17 19 21 22 21 22 22 23 24 25 26 27 27 27 28 30 30 32 33 34 35 35 34 31 30 30 30 31 31 30 30 30 29 29 31 33 34 35 34 33 33 33 32 32 33 32 32 32 33 34 35 35 35 34 32 31 31 30 31 34 34 34 35 36 37 39 40 41 41 42 43 43 44 45
12 12 12 13 14 15 15 15 15 16 16 17 19 21 22 22 22 22 23 23 24 25 26 26 25 26 28 30 31 34 35 36 37 35 32 30 31 31 32 32 31 31 31 33 34 35 36 37 38 36 34 34 34 33 33 33 32 32 33 33 33 34 33 32 33 32 31 30 28 29 33 34 34 37 38 37 37 39 40 40 40 41 42 42 43
12 12 12 13 14 15 16 15 16 16 17 17 19 21 22 23 23 23 23 22 23 24 25 25 25 25 26 27 30 33 35 36 36 35 33 32 32 33 33 33 33 32 33 35 36 37 37 38 38 37 35 35 35 35 34 33 32 31 32 32 32 31 30 30 31 30 29 29 29 30 33 35 35 37 39 39 39 39 38 38 38 38 39 40 40
12 12 12 13 14 15 17 17 17 17 17 18 19 21 22 22 22 23 23 23 22 23 25 25 24 24 24 26 29 33 35 35 34 33 33 33 35 35 35 35 35 34 34 36 37 38 38 38 38 38 37 35 34 33 33 32 31 31 32 33 33 32 31 31 31 30 30 31 32 33 35 37 38 39 40 41 42 40 37 35 34 34 35 35 34
12 12 12 13 14 15 17 18 19 19 19 19 20 21 21 21 21 23 23 23 22 22 24 24 23 24 26 29 33 36 36 34 32 32 32 33 35 36 35 35 35 35 34 36 38 40 40 39 38 36 35 34 32 31 32 33 33 33 33 33 33 33 33 34 34 34 34 34 35 37 39 39 39 39 40 39 40 40 38 35 33 31 32 32 29
12 12 12 13 14 15 16 18 20 20 21 20 20 21 22 22 21 22 23 22 22 22 23 25 26 27 28 31 34 34 32 30 31 33 33 33 34 34 33 33 33 33 33 35 37 38 36 35 33 31 30 29 29 29 30 31 32 32 32 33 33 33 33 34 34 35 37 38 38 39 39 39 38 38 39 39 38 39 38 36 34 31 30 29 25
12 12 12 13 14 15 16 18 19 20 21 22 21 21 21 21 21 22 22 21 20 21 24 26 27 28 28 29 30 29 30 30 32 34 34 33 34 35 34 34 35 34 33 35 35 31 26 23 23 23 23 24 24 24 26 27 29 31 32 33 33 33 34 34 34 35 37 37 37 37 37 37 37 36 36 35 35 37 38 35 34 32 29 26 24
12 12 12 13 14 15 17 18 18 19 21 22 23 23 22 20 18 19 20 19 17 19 22 24 25 25 26 27 27 28 30 32 33 33 33 33 33 33 34 35 36 35 34 35 31 24 20 19 20 21 21 22 22 24 26 27 28 30 32 33 33 33 34 34 34 36 37 36 35 35 35 34 34 34 34 32 31 34 38 36 34 31 27 24 21
12 12 12 13 14 16 17 18 18 19 19 20 22 24 25 24 21 18 16 15 17 19 20 21 21 20 21 24 26 27 28 30 30 31 31 31 31 31 31 33 33 32 32 30 25 21 20 20 21 22 22 22 23 26 27 28 28 30 32 33 33 33 33 33 35 36 36 35 34 34 33 33 34 34 34 32 29 31 35 34 33 30 26 24 21
12 12 12 13 14 15 16 17 17 18 19 19 19 21 23 26 27 24 19 15 16 18 17 16 16 17 19 22 25 26 26 27 28 29 30 30 30 29 30 30 29 28 27 24 21 21 21 20 20 21 21 21 24 26 28 29 30 31 32 31 32 32 33 34 36 36 35 34 33 31 31 32 32 32 32 28 26 29 30 27 27 26 24 23 22
12 12 13 13 14 15 15 16 17 17 18 19 19 19 19 21 24 27 27 24 20 16 12 10 12 17 21 23 23 24 25 26 27 28 28 28 28 28 28 27 24 22 21 20 19 20 21 19 19 20 20 22 24 27 29 29 29 30 30 31 32 34 36 36 35 34 32 30 29 28 28 29 30 31 31 28 27 30 28 24 23 22 21 20 19
12 12 12 13 14 14 15 15 16 16 16 17 18 18 18 18 19 22 25 27 27 24 22 18 16 18 22 23 21 22 25 26 26 27 27 27 26 26 26 24 22 21 20 18 18 19 20 20 20 20 21 23 25 26 27 28 28 28 29 31 32 34 35 34 31 28 26 25 25 25 27 29 29 29 28 26 26 27 25 23 23 20 19 18 17
11 12 12 12 13 13 14 14 14 15 16 16 16 17 18 18 18 18 19 21 24 27 31 30 27 25 24 23 22 23 24 25 25 26 26 26 26 27 27 27 26 26 24 21 19 18 19 20 21 22 24 26 26 26 27 28 29 28 28 29 31 33 33 30 27 25 24 23 23 24 25 26 26 26 24 23 23 21 17 17 19 20 19 18 16
11 11 12 12 12 13 13 13 13 13 14 15 16 16 17 17 17 17 17 18 19 22 28 32 31 30 27 25 25 27 26 25 24 24 24 23 24 26 27 26 25 25 25 24 22 21 20 21 23 25 28 28 27 28 29 29 29 29 28 29 30 31 31 29 27 25 23 22 23 23 23 23 23 23 23 22 21 19 15 12 13 16 17 17 17
11 11 12 12 12 12 12 11 11 12 13 14 15 15 16 16 16 16 17 17 18 19 23 27 29 30 29 28 28 29 28 25 23 22 22 23 25 26 25 23 22 23 24 25 25 24 24 25 26 28 29 28 28 30 30 28 28 29 30 30 30 30 29 29 28 26 25 24 24 24 23 23 24 23 22 20 18 17 15 12 12 13 15 16 16
11 11 12 12 11 11 12 12 12 12 13 13 13 14 14 15 15 15 16 16 17 18 21 23 24 26 28 29 29 29 29 29 28 28 28 28 29 28 27 24 23 23 23 25 25 25 26 28 29 29 29 29 30 30 29 28 29 29 31 32 32 29 28 27 25 24 24 24 24 23 23 23 23 23 21 18 17 16 15 14 13 13 15 16 15
11 11 11 11 10 10 11 11 12 12 12 12 12 12 14 14 14 14 15 16 17 18 20 21 21 22 24 25 27 27 27 28 30 31 31 30 30 29 28 26 25 24 24 25 26 26 27 29 30 30 29 29 29 29 28 29 29 29 30 31 31 28 26 26 25 23 22 22 22 23 22 22 24 23 21 18 17 17 16 15 15 14 14 15 16
11 11 11 10 10 10 10 11 12 11 11 11 12 12 13 13 14 14 15 16 17 18 19 19 20 21 21 22 23 23 23 25 27 28 28 29 29 28 27 26 26 26 26 26 27 27 27 29 29 30 30 30 29 29 29 29 28 28 28 28 27 25 24 25 25 25 26 25 24 23 22 22 22 21 20 19 18 18 18 17 16 16 16 16 18
11 12 11 10 9 9 10 10 11 10 9 10 11 11 12 12 12 13 14 15 16 18 18 18 19 19 19 19 19 19 20 22 24 25 25 26 27 27 27 26 26 26 26 27 27 27 28 29 29 30 30 29 29 29 29 29 28 28 28 28 27 25 24 25 27 28 28 28 26 25 24 22 20 17 17 18 17 17 18 18 18 18 18 17 17
12 12 11 10 9 9 10 10 9 9 9 10 10 10 10 11 11 12 13 14 15 16 17 18 19 19 18 18 17 18 18 20 21 23 24 25 25 26 26 26 26 26 26 26 26 27 27 28 29 29 29 29 29 29 29 29 29 27 27 28 29 27 26 27 28 29 28 27 26 25 24 22 19 16 14 13 12 12 13 14 15 15 15 15 16
12 12 11 9 9 9 9 9 9 9 9 9 9 9 9 10 10 10 11 12 13 14 16 18 19 19 19 18 18 18 19 20 21 22 23 24 25 26 26 26 26 26 25 25 25 25 26 26 27 28 28 28 29 29 28 28 29 28 28 28 29 29 28 28 28 28 27 26 25 24 22 20 18 15 12 10 8 6 5 6 6 8 10 11 14
12 11 10 9 9 9 9 8 8 9 8 8 9 8 8 8 9 9 10 11 12 13 14 16 18 19 19 19 19 19 20 21 22 22 23 24 25 26 26 26 26 26 26 25 24 24 25 25 26 27 28 28 28 28 28 28 28 29 29 28 28 29 29 28 28 27 26 24 24 22 20 18 15 13 10 7 4 1 4 6 7 7 9 10 12
12 11 10 9 9 9 8 8 8 8 8 8 8 8 7 7 8 8 9 11 12 13 14 15 16 17 18 19 19 19 20 21 21 21 22 23 24 25 25 25 25 25 25 25 24 24 24 25 26 27 28 28 28 28 29 29 29 29 29 29 28 28 28 28 27 26 23 22 21 19 17 15 13 11 9 6 3 3 5 8 11 12 12 12 12
11 10 10 10 9 9 8 8 7 7 7 8 8 8 7 7 7 8 9 10 11 12 14 14 15 16 17 18 18 19 20 20 20 21 21 22 22 23 24 24 24 24 24 24 24 24 23 24 25 26 27 28 29 29 29 29 29 29 30 30 30 29 28 27 25 24 21 20 18 16 14 12 11 9 8 6 5 6 7 9 11 12 13 14 13
11 10 10 10 10 9 9 8 8 8 8 8 8 8 8 8 8 9 9 10 11 12 13 13 14 15 16 17 17 18 19 20 20 20 20 21 21 22 22 23 23 23 23 23 23 23 23 23 23 24 25 27 28 29 30 30 30 30 30 31 32 31 29 27 24 22 20 17 16 14 12 11 10 10 8 8 8 9 10 11 11 12 13 14 14
10 10 10 10 10 10 10 9 9 8 8 8 8 9 9 9 9 9 9 10 11 11 12 13 14 15 16 16 17 18 19 19 19 19 19 19 20 21 21 22 22 22 22 22 22 23 23 22 22 23 24 25 27 28 29 30 31 31 31 31 31 31 29 26 24 22 19 16 14 12 11 10 10 10 10 10 11 11 13 13 13 13 14 14 14
10 10 11 11 11 11 10 10 10 9 9 9 9 9 9 9 10 10 10 11 11 12 12 13 14 15 16 17 17 18 19 19 19 19 19 19 20 20 21 21 21 21 22 22 22 22 22 22 22 22 23 24 25 26 27 29 30 31 31 30 30 29 28 26 23 21 19 16 14 12 11 11 11 12 12 12 13 13 14 15 14 15 15 15 15
10 11 11 12 12 11 11 11 11 10 10 10 10 10 10 11 11 11 11 12 12 12 13 14 15 15 16 17 18 19 19 19 19 19 19 20 20 20 21 21 21 21 22 22 21 21 21 22 22 21 21 22 24 24 25 27 29 30 29 28 28 27 27 25 23 20 18 16 14 13 12 13 13 14 14 14 15 15 16 16 16 17 17 17 16
11 11 12 12 12 12 12 12 12 11 11 11 12 12 12 12 12 12 12 13 13 14 14 15 16 16 17 17 18 19 19 19 20 20 20 20 20 20 21 21 22 22 22 22 22 21 21 21 22 21 20 20 22 23 23 24 26 27 27 27 26 26 25 24 22 20 17 15 14 13 13 14 15 16 16 16 16 17 17 17 18 18 18 17 16
Wind_Direction
73 69 65 60 54 49 40 32 29 23 19 18 14 12 8 3 360 356 354 352 350 348 345 343 341 339 337 336 335 335 334 334 335 335 335 334 334 333 333 332 330 329 327 324 323 324 322 321 319 318 319 318 317 317 316 314 311 306 302 296 289 284 276 263 260 275 276 274 276 278 278 278 276 274 273 273 273 273 274 273 272 269 267 266 265
69 63 58 48 37 31 18 9 7 5 5 5 4 2 359 355 352 348 347 346 345 343 341 339 337 335 334 332 331 331 331 331 331 332 332 332 331 331 330 330 327 326 325 321 320 319 317 315 313 312 314 312 310 310 310 310 311 307 303 298 289 286 282 271 266 273 279 278 276 277 277 275 273 273 272 272 273 272 272 272 272 269 267 266 265
62 53 44 27 14 7 0 352 348 350 351 349 348 348 347 346 343 340 338 337 336 337 336 335 333 332 331 330 329 328 327 328 328 328 329 329 328 327 327 326 324 322 320 318 316 314 312 309 306 306 309 308 305 305 304 304 304 302 301 298 291 287 285 277 270 270 278 282 278 276 276 273 272 273 273 273 273 272 271 271 271 270 268 265 263
19 4 1 355 343 337 341 335 330 336 336 332 334 337 337 338 337 334 333 332 331 331 331 331 330 330 329 328 327 326 326 326 325 325 326 326 325 324 323 322 321 318 316 313 311 310 307 304 302 303 303 301 300 300 301 300 299 298 298 297 293 289 287 281 273 271 275 281 280 277 276 275 273 274 274 273 271 270 269 270 269 269 268 265 263
286 294 300 312 318 318 317 310 306 312 313 317 326 332 335 335 334 334 333 332 331 330 329 329 328 328 327 327 326 325 324 324 323 323 323 323 321 320 319 317 315 313 311 309 307 305 303 300 299 300 298 295 293 294 296 297 296 295 293 292 292 291 288 283 278 274 272 274 278 280 278 276 275 274 272 270 270 269 268 267 267 267 267 265 262
273 272 276 285 294 291 287 286 292 301 311 321 329 332 332 331 330 330 329 329 329 329 329 328 328 327 326 325 324 323 323 322 321 321 320 320 319 317 315 313 310 308 306 304 303 300 298 297 296 296 294 290 289 289 291 292 293 293 291 290 290 289 287 283 279 276 272 272 276 279 278 276 274 274 272 270 269 268 267 266 266 264 263 263 262
266 255 256 263 273 283 297 307 313 318 322 325 326 324 323 323 324 324 324 325 325 325 326 326 326 326 325 324 324 322 322 321 321 321 320 319 317 314 311 309 306 304 301 300 299 297 295 293 293 292 290 288 287 287 287 287 288 289 289 289 289 287 285 282 280 276 272 273 275 276 276 275 273 273 274 272 269 266 264 264 265 263 261 260 260
312 283 259 266 285 301 312 315 316 318 319 319 319 318 319 320 321 322 323 323 324 325 325 325 324 324 324 323 323 322 322 322 323 322 320 318 315 312 308 305 302 300 298 295 294 293 292 291 290 289 288 287 287 286 286 285 285 285 285 287 288 286 283 281 280 276 272 272 273 274 275 274 271 271 271 267 263 263 260 258 259 260 258 258 259
351 334 301 292 297 302 306 308 310 312 313 315 316 317 318 319 320 321 322 323 324 324 324 325 325 324 323 322 321 321 321 322 321 320 318 316 313 309 305 301 299 297 295 293 291 289 289 288 288 288 288 288 287 286 285 284 282 280 281 282 283 283 282 281 279 276 273 271 272 273 274 271 268 266 262 255 255 260 263 257 257 259 259 258 259
335 322 310 305 304 304 305 306 308 310 311 313 315 316 318 318 318 319 320 321 322 323 323 325 326 324 322 321 320 321 321 319 318 316 315 312 309 306 302 299 296 294 292 291 290 289 288 287 287 287 287 287 287 287 286 284 281 278 278 279 278 277 277 277 275 274 272 270 270 271 270 269 267 261 255 256 257 260 261 255 255 261 260 257 260
313 310 307 306 305 305 305 306 308 310 311 313 315 315 316 317 317 318 319 320 321 322 323 324 325 324 322 321 320 320 320 319 318 317 315 311 307 304 300 297 294 292 290 288 288 289 289 289 288 288 287 287 287 287 287 285 283 281 279 278 276 274 272 272 272 272 270 267 268 268 265 265 268 264 257 259 259 256 255 254 254 258 256 251 262
302 301 301 301 302 303 305 307 308 311 313 314 316 317 317 318 318 319 320 320 321 322 323 323 323 324 323 321 321 321 319 319 320 318 314 311 308 304 299 296 293 291 289 288 288 289 290 290 290 289 288 287 287 287 286 286 285 285 283 281 277 273 270 269 269 269 268 266 266 266 263 264 268 267 259 257 256 253 253 251 249 252 252 249 255
298 297 298 298 301 303 305 309 311 314 316 317 317 319 319 320 321 321 321 321 321 322 323 324 324 325 324 323 321 320 319 320 321 318 313 311 309 306 301 296 294 292 291 290 291 291 292 293 293 291 289 288 288 287 286 286 285 284 283 282 279 276 272 269 267 266 266 265 264 264 264 263 265 267 263 258 254 250 248 247 246 247 249 249 254
296 297 298 299 302 304 307 311 314 315 317 318 318 320 320 321 322 322 322 323 324 325 325 325 325 325 324 323 321 319 319 321 321 316 312 310 309 306 302 297 295 293 292 293 295 295 295 295 294 293 292 291 289 289 289 288 287 285 284 282 280 279 276 273 269 266 264 264 263 263 264 264 263 266 267 263 255 249 246 245 245 245 247 252 257
293 293 294 297 300 305 309 312 314 316 317 318 319 320 321 321 323 324 325 325 326 326 325 324 324 324 324 323 320 318 318 320 320 315 312 310 309 307 302 298 296 294 294 296 296 296 296 295 294 292 292 291 289 289 288 287 286 285 283 281 279 278 277 274 271 269 266 264 263 263 264 265 264 265 267 265 259 255 253 252 251 252 253 256 259
287 287 292 297 301 307 311 312 314 316 317 318 319 320 321 323 325 326 325 325 325 324 324 323 322 322 323 322 319 316 317 320 319 315 312 310 309 307 303 299 297 295 297 299 299 299 299 298 297 295 295 294 293 293 290 287 286 284 282 280 279 278 276 274 273 271 270 268 266 265 265 265 265 265 266 266 263 261 258 255 253 251 249 251 255
283 288 293 298 303 308 310 311 313 315 316 318 319 320 321 322 324 326 325 324 324 324 323 322 321 321 320 319 317 315 315 318 318 313 311 309 308 306 303 300 299 298 299 301 301 301 300 300 301 301 300 299 299 298 295 292 288 285 283 283 282 279 277 276 276 275 274 272 270 269 268 267 267 266 264 263 263 261 255 249 245 242 240 240 247
282 287 292 298 304 309 310 311 313 315 316 318 317 318 320 321 323 325 325 323 322 322 322 320 319 319 317 316 316 314 312 315 316 312 308 308 306 304 302 300 299 299 300 300 300 300 300 300 301 300 298 297 297 296 295 293 289 283 280 278 276 274 275 278 280 279 277 275 273 272 270 268 267 266 264 262 260 256 248 242 241 239 235 232 238
280 286 293 302 308 310 311 312 313 314 314 315 315 315 317 320 322 323 323 322 320 320 320 319 317 317 317 316 316 314 312 315 318 313 307 306 305 303 301 299 297 298 299 299 299 298 297 296 297 296 295 294 295 296 296 296 294 291 289 286 280 277 280 282 281 279 277 276 275 274 272 269 266 265 264 262 260 255 248 244 243 238 233 233 235
281 288 297 305 308 308 310 311 312 313 312 312 313 314 317 319 321 322 322 321 320 318 319 317 314 314 317 317 317 315 314 316 319 314 306 303 304 302 300 297 295 295 296 294 293 292 292 292 293 294 293 292 292 293 292 292 291 290 291 290 288 288 291 291 287 283 280 278 276 272 270 269 267 266 264 262 259 256 250 246 242 237 234 233 233
283 291 299 304 305 306 309 309 310 310 310 311 312 313 317 319 319 320 321 320 319 317 317 316 313 312 316 317 317 318 318 318 317 312 305 302 303 301 298 296 293 292 291 290 290 292 293 293 292 292 293 292 291 291 290 290 289 286 284 283 283 287 290 289 287 286 286 285 283 278 273 269 265 262 261 259 257 255 252 247 242 237 234 232 231
286 293 299 302 304 306 308 307 309 309 310 312 312 313 317 319 318 320 320 318 317 316 315 315 312 312 315 318 320 321 321 320 316 310 304 301 302 301 298 296 295 294 293 293 292 292 293 292 291 291 293 293 292 290 289 288 287 285 283 283 285 286 287 287 287 287 288 289 289 286 281 277 270 264 259 256 254 253 251 248 244 239 235 232 231
288 295 299 302 304 306 307 308 310 311 313 315 314 314 317 318 319 320 319 317 315 313 313 313 312 311 314 319 322 324 323 320 315 310 304 302 302 302 299 298 299 297 295 293 292 291 290 291 290 289 289 290 290 291 291 291 291 289 289 289 290 290 291 291 290 290 290 289 287 284 281 280 278 274 268 261 255 252 250 248 246 242 238 235 233
288 294 298 302 304 306 308 311 313 315 317 318 315 315 317 318 318 319 317 315 312 310 310 311 310 310 312 315 319 322 320 316 312 310 307 303 303 303 301 300 299 297 294 292 291 290 289 289 288 288 289 293 295 297 297 297 295 293 291 290 290 289 290 289 288 287 286 283 281 280 279 277 276 275 275 270 263 256 250 248 247 244 241 239 235
287 294 298 302 305 308 310 313 317 318 320 320 317 316 317 316 315 315 314 312 309 307 307 307 306 306 308 309 311 313 312 309 308 309 308 306 304 303 300 298 297 296 294 291 289 288 288 288 290 294 297 298 298 297 296 295 292 291 289 290 290 289 287 284 283 282 279 277 276 276 276 276 274 274 275 276 272 262 251 246 245 243 241 240 237
287 293 299 302 306 311 313 316 319 321 321 321 318 316 315 313 312 312 311 309 307 305 303 304 303 302 303 304 305 305 305 303 303 307 309 308 306 303 299 296 296 294 292 291 290 290 289 289 293 295 296 295 294 292 291 291 289 289 290 290 290 287 284 282 279 277 275 274 275 274 274 275 277 276 275 276 276 268 253 241 239 238 235 234 234
287 292 298 303 307 312 316 318 320 321 321 321 319 317 316 312 308 309 309 306 304 302 300 300 300 299 300 302 302 301 301 301 303 307 309 306 304 302 300 298 298 296 292 292 292 292 291 291 291 289 288 289 288 287 288 289 289 289 289 288 285 282 280 278 276 273 272 271 272 273 274 276 278 278 275 271 272 271 261 243 233 232 230 227 227
284 290 297 303 308 314 317 318 319 319 319 320 319 318 317 314 309 309 310 306 300 296 297 298 299 300 301 301 300 300 301 303 306 308 308 306 304 304 304 303 303 300 296 294 294 293 292 291 289 287 285 284 283 283 285 286 288 288 288 287 285 282 280 278 274 271 270 270 271 272 273 274 274 274 272 268 266 270 266 246 231 228 227 221 219
281 288 296 303 310 316 317 317 318 318 317 319 320 318 318 316 310 308 311 311 299 291 294 298 300 302 303 302 303 305 306 307 308 309 310 309 309 310 310 308 307 305 303 304 305 304 299 294 292 292 291 289 288 288 289 289 289 288 287 286 286 284 282 277 272 270 270 269 269 269 271 273 272 271 270 265 261 265 266 249 229 223 221 216 214
281 287 297 306 312 315 315 315 317 317 317 319 320 320 321 320 310 302 307 310 300 290 293 298 301 303 305 305 307 307 306 307 310 312 313 313 312 312 312 310 310 311 313 316 319 318 313 309 305 302 300 299 298 296 294 294 292 290 290 290 289 286 283 278 273 272 271 269 268 268 269 271 271 270 270 266 261 265 265 249 227 216 213 210 211
282 290 300 308 312 313 312 312 315 316 316 318 320 320 322 324 322 317 310 306 301 298 299 301 304 308 311 311 311 310 309 312 315 316 317 317 316 315 314 313 314 316 318 321 323 321 319 316 311 307 307 305 301 299 298 296 294 293 294 295 292 289 285 279 277 276 273 269 268 268 269 271 273 273 273 270 267 269 264 244 221 210 209 208 209
281 292 302 308 310 309 308 309 312 314 316 318 320 320 322 323 326 329 328 318 311 309 308 309 314 320 321 319 317 316 317 319 321 322 323 324 324 323 321 320 321 323 325 327 327 324 322 318 311 310 310 307 303 303 302 300 298 298 297 297 295 293 289 285 282 279 274 270 268 267 268 271 273 275 276 273 271 272 262 235 209 202 205 206 208
280 292 301 305 307 307 307 308 310 311 314 317 318 319 320 318 319 324 329 331 331 331 330 330 331 331 329 326 324 323 324 326 328 330 332 333 333 332 330 327 329 335 340 342 337 330 325 320 314 314 314 311 310 310 307 303 302 302 300 298 297 296 294 292 288 282 275 271 268 268 269 270 271 274 275 273 273 271 257 229 206 201 202 203 206
278 289 298 302 302 303 305 306 307 309 312 314 315 315 315 314 313 315 321 328 332 335 336 336 337 336 332 329 328 329 331 333 336 338 340 341 341 340 339 338 341 347 352 350 340 332 327 324 320 320 320 317 315 313 310 308 307 305 302 301 301 300 299 296 291 283 276 272 269 268 268 269 270 273 274 275 279 275 254 223 207 202 201 202 203
276 286 294 297 297 300 302 302 304 308 311 312 314 313 312 312 311 309 312 317 320 322 324 329 336 341 339 335 334 335 337 340 344 346 348 349 348 349 351 352 351 349 349 347 341 333 327 323 319 319 319 317 314 313 311 310 308 306 303 303 304 304 301 297 291 285 279 274 270 268 267 268 268 270 271 273 277 279 264 229 207 199 197 198 199
276 284 290 295 296 297 298 300 303 307 309 310 311 309 308 308 308 307 309 310 310 311 316 322 331 340 345 346 345 344 343 346 348 348 348 351 353 357 359 356 349 344 342 341 338 332 326 321 318 316 315 313 312 312 311 309 309 311 310 308 308 307 304 299 293 289 283 275 271 270 269 269 270 271 273 271 268 269 268 245 213 202 200 198 198
275 282 287 294 295 294 296 300 303 306 306 304 303 304 305 307 308 308 308 310 311 311 313 318 327 334 339 345 352 352 347 343 345 350 352 354 357 0 0 354 345 340 338 336 335 332 326 323 321 319 317 315 314 314 312 311 313 316 316 315 313 312 312 306 297 289 285 279 275 272 270 271 274 275 273 270 265 263 260 244 218 207 207 206 202
273 279 286 291 292 292 296 299 300 300 299 297 299 304 305 306 308 309 309 311 313 312 312 317 323 326 328 336 349 353 346 341 346 353 356 356 358 359 357 352 347 342 337 335 335 332 327 325 325 324 322 321 319 317 315 315 316 318 320 321 318 317 321 322 313 301 292 285 281 279 275 275 278 279 274 267 263 263 261 247 226 211 205 204 202
270 276 281 285 285 284 286 289 291 293 294 296 301 305 304 305 308 309 310 314 315 314 315 317 319 322 327 334 344 347 342 339 342 346 348 350 354 354 352 349 346 342 338 337 337 334 330 328 328 327 326 326 325 322 320 319 319 320 323 325 323 322 327 333 332 326 319 309 299 294 288 284 283 283 280 273 266 263 260 250 234 219 208 204 203
268 273 276 279 279 278 278 282 286 288 291 295 300 302 301 304 308 309 311 314 314 314 315 316 317 324 332 335 338 340 339 336 337 339 340 343 346 348 348 347 344 342 340 338 337 336 334 331 330 330 330 330 330 329 326 324 324 324 326 328 327 324 327 333 337 338 339 334 325 318 310 302 295 287 278 271 266 260 255 249 237 225 215 209 207
265 271 274 276 277 278 280 281 282 285 289 292 295 297 298 303 307 308 311 314 313 313 316 317 319 327 335 335 333 335 337 335 336 338 339 339 340 342 344 344 343 342 341 339 339 338 337 335 335 334 333 333 334 335 335 334 331 330 331 333 332 328 329 334 338 341 344 342 337 332 327 322 314 299 278 267 265 260 252 247 237 224 213 206 203
262 267 272 274 275 278 280 281 281 284 287 288 291 294 298 301 305 306 309 313 314 315 318 320 323 330 339 340 338 339 342 342 340 340 341 341 341 342 343 344 345 345 343 342 342 341 339 338 339 339 337 337 337 338 339 341 340 336 335 337 337 336 334 336 340 342 344 343 340 337 335 332 327 315 294 279 273 263 250 241 232 218 205 196 189
259 264 270 273 275 278 280 281 281 280 283 288 293 295 297 297 299 303 307 311 314 317 318 320 324 332 340 345 347 348 348 347 345 344 345 345 345 345 346 347 348 348 348 348 348 346 343 342 343 343 344 344 343 341 341 343 345 345 342 340 340 341 339 339 341 343 343 343 343 342 341 339 336 331 321 306 289 264 235 220 210 197 185 175 169
256 261 265 269 274 275 274 275 276 278 283 289 290 291 293 293 295 302 308 309 314 319 319 320 325 332 338 344 348 349 348 347 346 347 348 348 348 348 349 350 351 352 353 353 354 353 351 349 348 348 350 351 351 350 348 348 349 351 350 346 343 343 343 343 344 345 345 345 345 345 345 345 345 345 343 335 316 232 160 149 145 143 143 144 144
253 258 261 265 269 270 269 270 273 276 281 285 287 290 294 294 296 304 308 310 316 320 321 323 329 333 335 339 343 344 343 343 344 347 349 349 349 350 351 352 353 354 355 356 357 358 358 356 354 353 353 354 355 356 355 355 355 355 355 354 350 346 346 346 347 348 349 348 348 348 350 353 357 0 3 7 26 84 115 129 134 134 133 134 135
251 254 258 262 265 267 268 269 271 274 277 282 288 295 299 299 302 307 308 311 317 320 321 326 331 331 333 336 338 338 338 339 342 346 348 349 350 351 351 352 354 355 357 358 359 359 1 1 360 358 356 356 357 358 358 359 359 358 358 359 357 354 352 352 351 352 353 353 352 352 355 2 13 21 24 35 59 80 92 105 118 125 128 130 131
249 251 255 259 264 266 266 267 269 274 278 280 287 293 298 302 306 309 309 312 317 318 319 324 327 328 330 333 333 333 335 337 339 343 346 347 349 350 351 352 353 354 357 360 0 0 1 3 4 4 1 359 359 359 360 1 1 1 1 1 359 358 358 357 356 357 358 357 358 0 6 18 31 37 43 55 70 79 85 92 99 108 115 120 123
249 251 254 258 261 263 265 265 267 271 276 279 284 290 296 299 303 306 309 312 314 316 318 321 322 324 327 328 328 330 331 333 336 340 343 345 347 348 349 350 352 352 355 358 0 1 1 1 4 6 6 2 360 360 1 1 1 3 3 1 359 359 1 2 1 2 2 3 7 14 22 33 43 50 56 64 72 77 82 87 93 99 104 109 113
251 253 256 259 261 262 265 267 268 271 275 279 281 286 292 295 298 302 307 309 310 313 316 317 319 321 323 323 325 326 328 330 334 337 339 342 344 345 346 348 350 350 352 355 357 359 359 359 0 5 8 7 3 2 2 2 2 3 4 2 359 359 3 6 7 7 7 9 17 28 36 45 55 62 67 71 77 82 85 86 89 94 97 99 102
257 258 259 261 263 265 266 267 269 272 276 278 281 285 288 290 293 298 304 306 308 311 313 315 316 317 319 319 321 323 325 327 330 333 335 338 340 341 342 344 346 347 349 351 353 355 356 356 356 1 7 10 8 5 5 4 2 2 4 3 1 1 5 8 10 13 14 17 23 35 45 54 62 67 71 76 80 82 83 85 88 91 93 94 97
262 263 264 265 267 269 268 269 272 275 277 278 281 284 286 289 293 297 300 303 306 309 312 313 313 313 314 316 317 318 320 323 325 327 330 333 335 337 339 340 341 343 345 346 349 351 353 353 354 355 1 8 9 7 6 4 0 359 1 3 3 4 7 9 11 16 20 24 30 39 49 58 64 66 70 75 79 80 81 84 87 89 90 91 94